{"data":{"norad_id":69322,"epoch":"2026-09-20T03:35:13.663680Z","epoch_age_seconds":60358,"freshness":"FRESH","line1":"1 69322U 26120C   26263.14946370  .00008939  00000+0  24888-3 0  9997","line2":"2 69322  54.9976 320.6592 0009321 187.7618 172.3267 15.37588060 17306","mean_motion":15.3758806,"eccentricity":0.0009321,"inclination_deg":54.9976,"raan_deg":320.6592,"arg_perigee_deg":187.7618,"mean_anomaly_deg":172.3267,"bstar":0.00024888,"rev_number":1730,"period_min":93.653172618939,"perigee_km":446.87649991177,"apogee_km":459.61156042821,"semimajor_km":6831.38103017,"source":"CELESTRAK","updated_at":"2026-09-20T09:00:24.818073Z"}}